1501304400.47,65267,17.5,73916.3,2.01,0.33,0.21,0,*7D
1501304401.69,65268,17.5,73918.5,1.99,0.95,0.91,0,*77
1501304402.91,65269,17.5,73920.0,1.99,0.47,0.47,0,*72
1501304404.12,65270,17.5,73926.0,1.97,0.51,0.43,0,*77
1501304405.37,65271,17.5,73920.5,1.97,0.55,0.51,0,*71
1501304406.6,65272,17.5,73920.3,1.97,0.75,0.79,0,*7A
1501304407.85,65273,17.5,73928.5,1.97,2.01,2.09,0,*7F
1501304409.1,65274,17.5,73928.3,1.97,1.85,1.97,0,*73
1501304410.36,65275,17.5,73926.3,2.01,2.13,2.17,0,*79
1501304411.62,65276,17.5,73930.0,2.01,2.13,2.17,0,*7A
1501304412.86,65277,17.5,73928.3,2.01,0.91,0.95,0,*7B
1501304414.11,65278,17.5,73926.3,2.01,0.55,0.55,0,*70
1501304415.33,65279,17.5,73932.8,1.99,0.71,0.79,0,*7B
1501304416.56,65280,17.5,73930.0,1.99,1.55,1.63,0,*70
1501304417.78,65281,17.5,73928.8,1.99,1.93,1.97,0,*70
1501304419.0,65282,17.5,73924.8,1.97,1.83,1.85,0,*7F
1501304420.23,65283,17.5,73922.8,1.99,1.97,1.97,0,*76
1501304421.43,65284,17.5,73930.3,2.01,2.27,2.35,0,*70
1501304422.69,65285,17.5,73926.8,2.01,2.47,2.47,0,*72
1501304423.86,65286,17.5,73920.3,2.03,2.31,2.31,0,*73
1501304425.11,65287,17.5,73920.5,2.05,1.93,1.89,0,*7F
1501304426.35,65288,17.5,73910.0,2.03,1.37,1.37,0,*7D
1501304427.55,65289,17.5,73912.8,2.01,1.05,1.05,0,*7E
1501304428.77,65290,17.5,73924.3,2.03,0.75,0.71,0,*70
1501304430.01,65291,17.5,73922.3,2.01,0.63,0.59,0,*7E
1501304431.25,65292,17.5,73920.8,2.03,1.21,1.21,0,*76
1501304432.49,65293,17.5,73920.5,2.03,1.37,1.37,0,*77
1501304433.7,65294,17.5,73924.5,2.01,1.75,1.75,0,*72
1501304434.95,65295,17.5,73926.0,2.01,1.89,2.01,0,*70
1501304436.18,65296,17.5,73924.5,2.03,2.09,2.17,0,*7D
1501304437.39,65297,17.5,73924.3,2.03,2.55,2.61,0,*74
1501304438.6,65298,17.5,73922.5,2.03,2.31,2.39,0,*74
1501304439.83,65299,17.5,73922.3,2.03,2.01,2.01,0,*7D
1501304441.09,65300,17.5,73924.8,2.05,2.39,2.43,0,*77
1501304442.31,65301,17.5,73924.8,2.05,2.27,2.21,0,*7D
1501304443.54,65302,17.5,73926.8,2.07,1.63,1.63,0,*7A
1501304444.8,65303,17.5,73928.8,2.05,1.37,1.37,0,*79
1501304446.02,65304,17.5,73920.8,2.07,0.79,0.87,0,*7D
1501304447.24,65305,17.5,73928.8,2.05,0.59,0.43,0,*74
1501304448.48,65306,17.5,73928.3,2.05,0.25,0.21,0,*78
1501304449.72,65307,17.5,73908.3,2.05,0.21,0.13,0,*7C
1501304450.96,65308,17.5,73908.8,2.03,1.09,1.09,0,*74
1501304452.21,65309,17.5,73912.3,2.01,1.97,1.89,0,*78
1501304453.39,65310,17.5,73916.8,2.03,2.91,2.91,0,*7D
1501304454.6,65311,17.5,73914.5,2.05,2.65,2.65,0,*7A
1501304455.86,65312,17.5,73912.5,2.05,2.05,2.05,0,*79
1501304457.12,65313,17.5,73924.0,2.05,1.21,1.09,0,*72
1501304458.31,65314,17.5,73912.0,2.07,0.91,0.97,0,*7B
1501304459.58,65315,17.5,73918.8,2.05,1.21,1.29,0,*76
1501304460.84,65316,17.5,73926.5,2.05,1.21,1.21,0,*7D
1501304462.08,65317,17.5,73926.5,2.03,1.29,1.21,0,*72
1501304463.33,65318,17.5,73908.3,2.05,0.83,0.75,0,*7A
1501304464.53,65319,17.5,73896.5,2.01,-0.29,-0.29,0,*76
1501304465.72,65320,17.5,73902.0,2.01,0.05,0.09,0,*70
1501304466.98,65321,17.5,73906.8,2.01,1.13,1.17,0,*79
1501304468.24,65322,17.5,73900.0,2.01,1.33,1.33,0,*7E
1501304469.47,65323,17.5,73902.8,2.01,1.41,1.33,0,*7A
1501304470.72,65324,17.5,73906.3,2.01,1.89,1.89,0,*78
1501304471.97,65325,17.5,73910.0,2.01,2.05,2.17,0,*7A
1501304473.22,65326,17.5,73918.3,2.05,1.67,1.67,0,*7E
1501304474.46,65327,17.5,73920.0,2.05,1.89,1.89,0,*7F
1501304475.7,65328,17.5,73926.3,2.03,2.17,2.21,0,*73
1501304476.87,65329,17.5,73920.3,2.03,2.27,2.31,0,*70
1501304478.13,65330,17.5,73920.5,2.05,1.71,1.67,0,*7E
1501304479.34,65331,17.56,73916.0,2.05,-0.11,-0.11,0,*78
1501304480.58,65332,17.5,73912.8,2.01,0.21,0.17,0,*7A
1501304481.79,65333,17.56,73916.8,2.01,0.43,0.41,0,*7C
1501304483.03,65334,17.56,73914.5,2.01,0.59,0.71,0,*73
1501304484.25,65335,17.5,73914.0,1.99,1.43,1.51,0,*79
1501304485.48,65336,17.56,73926.5,1.99,2.13,2.13,0,*79
1501304486.71,65337,17.5,73920.3,1.99,2.51,2.51,0,*78
1501304487.92,65338,17.56,73922.5,2.03,2.55,2.65,0,*74
1501304489.18,65339,17.56,73926.5,2.01,2.47,2.59,0,*7B
1501304490.41,65340,17.56,73928.3,2.03,2.17,2.21,0,*7D
1501304491.66,65341,17.56,73936.0,2.05,1.93,1.93,0,*7F
1501304492.89,65342,17.56,73930.3,2.05,1.09,1.05,0,*70
1501304494.06,65343,17.56,73934.8,2.03,-0.03,0.01,0,*54
1501304495.3,65344,17.5,73932.3,2.01,0.21,0.29,0,*76
1501304496.53,65345,17.56,73934.3,2.01,0.67,0.67,0,*7F
1501304497.76,65346,17.56,73934.8,1.97,1.01,1.13,0,*73
1501304498.98,65347,17.56,73928.8,2.03,1.89,1.93,0,*74
1501304500.21,65348,17.56,73932.3,2.01,2.25,2.35,0,*73
1501304501.42,65349,17.56,73934.5,2.03,2.61,2.73,0,*72
1501304502.64,65350,17.56,73928.5,2.05,2.27,2.21,0,*79
1501304503.9,65351,17.56,73924.5,2.05,1.43,1.37,0,*7D
1501304505.13,65352,17.56,73926.8,2.05,0.95,0.95,0,*7D
1501304506.38,65353,17.56,73940.3,2.05,0.75,0.75,0,*7C
1501304507.6,65354,17.56,73928.0,2.05,0.21,-0.03,0,*66
1501304508.81,65355,17.56,73930.0,2.01,-0.77,-0.77,0,*7E
1501304510.01,65356,17.56,73918.3,2.01,-0.45,-0.53,0,*7A
1501304511.21,65357,17.56,73914.8,1.97,-0.29,-0.33,0,*7B
1501304512.42,65358,17.56,73912.8,1.95,-0.15,-0.23,0,*78
1501304513.65,65359,17.56,73910.8,1.93,-0.15,-0.23,0,*7F
1501304514.86,65360,17.56,73912.8,1.93,-0.41,-0.49,0,*78
1501304516.04,65361,17.56,73910.3,1.91,-0.29,-0.37,0,*7C
1501304517.25,65362,17.56,73902.3,1.89,-0.37,-0.37,0,*79
1501304518.46,65363,17.56,73898.8,1.89,0.17,0.05,0,*4B
1501304519.66,65364,17.56,73900.5,1.89,-0.29,-0.37,0,*70
1501304520.91,65365,17.56,73906.8,1.85,0.87,0.75,0,*7F
1501304522.16,65366,17.56,73912.5,1.85,1.89,2.09,0,*7A
1501304523.39,65367,17.56,73914.8,1.89,2.59,2.65,0,*73
1501304524.6,65368,17.56,73906.8,1.91,2.65,2.73,0,*7D
1501304525.81,65369,17.56,73914.5,1.91,3.23,3.29,0,*71
1501304527.03,65370,17.56,73908.8,1.95,3.23,3.23,0,*77
1501304528.25,65371,17.56,73912.8,1.99,3.19,3.23,0,*73
1501304529.48,65372,17.56,73916.5,1.99,3.11,3.19,0,*71
1501304530.74,65373,17.56,73918.3,2.01,2.51,2.51,0,*7A
1501304531.96,65374,17.56,73920.5,2.03,2.21,2.21,0,*7F
1501304533.22,65375,17.56,73918.3,2.05,1.55,1.47,0,*7B
1501304534.48,65376,17.56,73916.5,2.05,1.29,1.33,0,*70
1501304535.74,65377,17.56,73912.8,2.05,2.39,2.51,0,*74
1501304536.94,65378,17.56,73914.8,2.07,3.49,3.59,0,*76
1501304538.12,65379,17.56,73920.0,2.11,2.95,2.99,0,*7D
1501304539.37,65380,17.56,73920.8,2.13,2.13,2.13,0,*75
1501304540.62,65381,17.56,73920.8,2.13,1.67,1.55,0,*75
1501304541.83,65382,17.56,73920.5,2.11,1.41,1.37,0,*74
1501304543.04,65383,17.56,73920.8,2.13,1.75,1.79,0,*7A
1501304544.29,65384,17.56,73920.5,2.13,2.01,2.09,0,*79
1501304545.53,65385,17.56,73922.0,2.15,2.43,2.51,0,*75
1501304546.75,65386,17.56,73918.8,2.15,2.01,2.01,0,*75
1501304548.0,65387,17.56,73918.0,2.13,1.85,1.89,0,*7E
1501304549.21,65388,17.56,73924.5,2.15,1.09,1.05,0,*77
1501304550.43,65389,17.56,73922.8,2.15,0.71,0.71,0,*7A
1501304551.63,65390,17.56,73926.5,2.13,1.01,1.01,0,*74
1501304552.85,65391,17.56,73930.3,2.11,0.83,0.95,0,*70
1501304554.07,65392,17.56,73926.3,2.11,0.95,0.91,0,*70
1501304555.29,65393,17.56,73918.8,2.11,0.33,0.21,0,*76
1501304556.51,65394,17.56,73912.5,2.11,0.29,0.29,0,*72
1501304557.69,65395,17.56,73912.8,2.05,0.09,0.01,0,*7E
1501304558.91,65396,17.56,73918.0,2.05,0.43,0.47,0,*71
1501304560.13,65397,17.56,73906.5,2.03,0.47,0.47,0,*72
1501304561.32,65398,17.63,73922.5,2.03,0.95,0.97,0,*7F
1501304562.58,65399,17.63,73922.0,2.01,2.01,2.17,0,*79
1501304563.81,65400,17.56,73920.0,2.03,2.01,1.93,0,*73
1501304565.06,65401,17.56,73922.5,2.05,0.87,0.75,0,*71
1501304566.26,65402,17.63,73924.0,2.03,-0.15,-0.23,0,*7C
1501304567.45,65403,17.63,73918.3,2.03,-0.03,-0.11,0,*4B
1501304568.62,65404,17.56,73914.0,1.99,-0.07,-0.15,0,*4C
1501304569.86,65405,17.63,73918.8,1.97,0.29,0.29,0,*70
1501304571.07,65406,17.63,73920.8,1.99,0.67,0.71,0,*7A
1501304572.29,65407,17.56,73914.3,1.97,0.91,0.97,0,*74
1501304573.52,65408,17.63,73914.8,1.97,0.67,0.67,0,*7D
1501304574.75,65409,17.56,73910.3,1.99,1.17,1.13,0,*76
1501304575.98,65410,17.63,73910.5,1.97,1.09,1.01,0,*7C
1501304577.23,65411,17.56,73914.5,1.97,1.21,1.13,0,*74
1501304578.46,65412,17.63,73914.0,1.99,1.67,1.67,0,*78
1501304579.71,65413,17.63,73914.5,1.97,1.25,1.25,0,*77
1501304580.93,65414,17.56,73912.5,1.97,1.41,1.25,0,*72
1501304582.16,65415,17.56,73922.3,1.99,1.13,1.17,0,*7B
1501304583.42,65416,17.63,73914.3,1.97,1.21,1.21,0,*72
1501304584.65,65417,17.56,73908.3,1.99,1.25,1.25,0,*7D
1501304585.88,65418,17.56,73906.3,1.99,1.25,1.29,0,*7E
1501304587.08,65419,17.56,73918.8,1.99,1.01,0.91,0,*4B
1501304588.29,65420,17.63,73928.5,1.99,0.41,0.33,0,*7C
1501304589.52,65421,17.56,73918.8,1.97,-1.09,-1.33,0,*7F
1501304590.78,65422,17.56,73924.0,1.93,-0.97,-1.09,0,*47
1501304592.05,65423,17.56,73916.8,1.93,-0.97,-1.09,0,*46
1501304593.25,65424,17.56,73916.8,1.89,-0.57,-0.77,0,*7E
1501304594.45,65425,17.56,73922.3,1.85,-0.33,-0.33,0,*71
1501304595.62,65426,17.56,73918.5,1.83,0.05,0.05,0,*74
1501304596.83,65427,17.63,73926.3,1.85,0.41,0.43,0,*71
1501304598.02,65428,17.56,73928.8,1.83,-0.33,-0.41,0,*7F
1501304599.22,65429,17.56,73930.8,1.81,-0.65,-0.65,0,*79
1501304600.41,65430,17.56,73928.8,1.79,-0.41,-0.49,0,*7E
1501304601.6,65431,17.56,73930.5,1.79,-0.37,-0.37,0,*77
1501304602.78,65432,17.56,73928.3,1.79,-0.15,-0.15,0,*74
1501304603.95,65433,17.56,73926.0,1.79,0.05,0.05,0,*75
1501304605.18,65434,17.56,73934.5,1.79,0.21,0.21,0,*72
1501304606.34,65435,17.56,73936.8,1.79,0.43,0.43,0,*73
1501304607.56,65436,17.56,73936.5,1.79,0.17,0.21,0,*75
1501304608.76,65437,17.56,73936.0,1.75,-0.23,-0.29,0,*77
1501304610.01,65438,17.56,73946.8,1.77,0.47,0.47,0,*70
1501304611.27,65439,17.56,73942.0,1.77,1.51,1.55,0,*75
1501304612.45,65440,17.56,73924.5,1.79,1.83,1.83,0,*71
1501304613.67,65441,17.56,73922.5,1.79,1.93,1.93,0,*70
1501304614.92,65442,17.56,73920.8,1.81,1.59,1.55,0,*78
1501304616.16,65443,17.56,73918.3,1.81,1.47,1.47,0,*75
1501304617.4,65444,17.56,73914.3,1.83,1.37,1.37,0,*70
1501304618.64,65445,17.56,73922.0,1.83,1.37,1.37,0,*71
1501304619.84,65446,17.56,73916.0,1.83,1.01,1.09,0,*7A
1501304621.07,65447,17.56,73918.3,1.83,0.91,0.87,0,*74
1501304622.28,65448,17.56,73912.0,1.83,0.17,0.13,0,*78
1501304623.48,65449,17.56,73912.5,1.81,-0.15,-0.11,0,*7B
1501304624.7,65450,17.56,73914.8,1.79,-0.19,-0.27,0,*7D
1501304625.92,65451,17.56,73904.3,1.79,0.29,0.21,0,*79
1501304627.15,65452,17.56,73910.8,1.81,0.29,0.25,0,*79
1501304628.33,65453,17.56,73916.5,1.79,-0.03,-0.07,0,*77
1501304629.56,65454,17.56,73910.8,1.79,-0.89,-0.89,0,*74
1501304630.73,65455,17.56,73908.5,1.75,0.05,-0.03,0,*52
1501304631.97,65456,17.56,73922.8,1.77,0.37,0.37,0,*78
1501304633.16,65457,17.56,73922.0,1.77,0.43,0.43,0,*79
1501304634.41,65458,17.56,73912.8,1.77,0.55,0.59,0,*7A
1501304635.64,65459,17.56,73916.0,1.75,0.91,0.75,0,*7F
1501304636.85,65460,17.56,73912.5,1.75,0.17,0.17,0,*7F
1501304638.04,65461,17.56,73920.3,1.75,0.43,0.41,0,*7C
1501304639.26,65462,17.56,73920.0,1.75,0.17,0.21,0,*78
1501304640.49,65463,17.56,73902.3,1.75,-0.23,-0.23,0,*7C
1501304641.65,65464,17.56,73892.0,1.75,0.05,0.01,0,*7F
1501304642.86,65465,17.56,73900.5,1.73,-0.11,-0.11,0,*7C
1501304644.07,65466,17.56,73892.5,1.73,-0.11,-0.19,0,*77
1501304645.3,65467,17.56,73894.5,1.71,-0.27,-0.33,0,*79
1501304646.54,65468,17.56,73900.5,1.71,0.63,0.63,0,*73
1501304647.78,65469,17.56,73914.8,1.71,0.75,0.71,0,*76
1501304648.97,65470,17.56,73906.5,1.71,0.09,-0.03,0,*5D
1501304650.18,65471,17.56,73906.5,1.71,-0.45,-0.57,0,*78
1501304651.37,65472,17.56,73894.3,1.67,-0.07,0.05,0,*50
1501304652.62,65473,17.56,73896.3,1.67,1.09,1.09,0,*7E
1501304653.8,65474,17.56,73902.0,1.69,1.75,1.83,0,*7E
1501304655.0,65475,17.56,73918.8,1.73,1.79,1.79,0,*7D
1501304656.25,65476,17.56,73928.0,1.71,1.43,1.43,0,*7C
1501304657.51,65477,17.56,73934.3,1.73,1.13,1.13,0,*7F
1501304658.77,65478,17.56,73932.0,1.73,1.13,1.13,0,*70
1501304659.97,65479,17.56,73924.5,1.71,-0.33,-0.37,0,*77
1501304661.18,65480,17.56,73920.3,1.73,-0.53,-0.45,0,*70
1501304662.41,65481,17.63,73924.5,1.71,0.13,0.13,0,*74
1501304663.64,65482,17.56,73920.0,1.73,0.13,0.13,0,*75
1501304664.85,65483,17.63,73924.3,1.71,0.13,0.01,0,*45
1501304666.09,65484,17.56,73920.3,1.71,0.13,0.13,0,*71
1501304667.29,65485,17.63,73912.8,1.69,0.17,0.17,0,*79
1501304668.5,65486,17.56,73912.3,1.69,0.13,0.13,0,*7A
1501304669.69,65487,17.63,73924.3,1.69,0.97,0.95,0,*79
1501304670.87,65488,17.56,73922.8,1.69,1.75,1.75,0,*74
1501304672.09,65489,17.63,73926.0,1.69,1.59,1.67,0,*78
1501304673.35,65490,17.56,73926.3,1.71,1.33,1.37,0,*70
1501304674.61,65491,17.56,73926.8,1.73,1.37,1.37,0,*77
1501304675.86,65492,17.56,73922.0,1.73,0.79,0.83,0,*71
1501304677.1,65493,17.56,73924.0,1.73,0.55,0.55,0,*75
1501304678.34,65494,17.63,73926.5,1.73,0.41,0.41,0,*72
1501304679.57,65495,17.63,73918.5,1.73,0.41,0.33,0,*76
1501304680.78,65496,17.63,73922.3,1.73,0.17,0.05,0,*43
1501304682.0,65497,17.63,73924.3,1.71,-0.11,-0.11,0,*73
1501304683.2,65498,17.63,73924.0,1.71,-0.65,-0.65,0,*7C
1501304684.38,65499,17.63,73916.8,1.69,-0.45,-0.57,0,*77
1501304685.56,65500,17.63,73922.5,1.69,-0.03,-0.15,0,*42
1501304686.74,65501,17.56,73920.5,1.69,-0.11,-0.15,0,*70
1501304687.98,65502,17.56,73922.5,1.67,0.25,0.25,0,*79
1501304689.18,65503,17.63,73910.8,1.65,0.37,0.33,0,*7E
1501304690.39,65504,17.56,73902.8,1.65,0.21,0.21,0,*7D
1501304691.6,65505,17.63,73900.0,1.67,0.09,0.13,0,*45
1501304692.82,65506,17.63,73906.3,1.65,0.55,0.71,0,*79
1501304694.02,65507,17.56,73902.5,1.65,1.05,1.09,0,*72
1501304695.19,65508,17.56,73896.8,1.69,1.83,1.75,0,*74
1501304696.42,65509,17.63,73910.3,1.69,2.17,2.21,0,*79
1501304697.68,65510,17.63,73914.0,1.71,2.39,2.43,0,*70
1501304698.87,65511,17.56,73912.3,1.73,2.31,2.31,0,*7E
1501304700.13,65512,17.56,73914.3,1.73,2.51,2.47,0,*7A
1501304701.36,65513,17.56,73914.5,1.75,2.51,2.59,0,*72
1501304702.63,65514,17.56,73918.0,1.77,2.51,2.51,0,*7F
1501304703.86,65515,17.56,73914.5,1.79,2.05,2.01,0,*74
1501304705.11,65516,17.63,73914.5,1.81,1.97,1.97,0,*74
1501304706.3,65517,17.56,73910.8,1.83,1.83,1.89,0,*7D
1501304707.53,65518,17.56,73914.5,1.83,2.01,2.01,0,*78
1501304708.75,65519,17.56,73908.8,1.83,0.91,0.75,0,*73
1501304709.96,65520,17.63,73912.3,1.83,0.29,0.25,0,*7F
1501304711.2,65521,17.56,73908.8,1.81,0.37,0.37,0,*70
1501304712.41,65522,17.56,73910.5,1.81,0.95,0.97,0,*71
1501304713.63,65523,17.56,73906.3,1.79,1.43,1.43,0,*75
1501304714.85,65524,17.56,73912.8,1.79,1.89,1.89,0,*72
1501304716.11,65525,17.56,73910.8,1.81,2.05,2.09,0,*78
1501304717.32,65526,17.56,73916.5,1.83,2.59,2.61,0,*7E
1501304718.57,65527,17.56,73916.0,1.85,2.73,2.81,0,*7F
1501304719.82,65528,17.56,73914.0,1.89,2.85,2.77,0,*7C
1501304720.99,65529,17.56,73918.5,1.91,2.27,2.27,0,*79
1501304722.23,65530,17.56,73920.8,1.95,2.09,2.17,0,*7A
1501304723.48,65531,17.56,73916.3,1.93,2.09,2.05,0,*7E
1501304724.71,65532,17.56,73918.5,1.93,1.89,1.79,0,*7E
1501304725.96,65533,17.56,73916.0,1.93,1.55,1.43,0,*77
1501304727.2,65534,17.56,73918.8,1.93,0.71,0.63,0,*74
1501304728.44,65535,17.56,73918.0,1.93,0.95,0.83,0,*71
1501304729.69,0,17.56,73912.3,1.93,1.21,1.21,0,*76
1501304730.92,1,17.56,73918.8,1.93,1.97,2.05,0,*7F
1501304732.13,2,17.56,73922.5,1.95,2.05,2.17,0,*71
1501304733.35,3,17.56,73922.0,1.93,1.67,1.59,0,*78
1501304734.57,4,17.56,73918.8,1.95,1.33,1.33,0,*74
1501304735.78,5,17.56,73916.5,1.95,1.21,1.21,0,*75
1501304736.98,6,17.56,73922.3,1.95,1.71,1.71,0,*76
1501304738.18,7,17.56,73920.0,1.95,1.67,1.67,0,*77
1501304739.34,8,17.56,73928.5,1.95,1.79,1.83,0,*7D
1501304740.57,9,17.56,73924.0,1.97,1.93,1.85,0,*7C
1501304741.8,10,17.56,73928.0,1.97,2.01,2.01,0,*43
1501304742.99,11,17.56,73930.5,1.97,2.31,2.31,0,*42
1501304744.19,12,17.56,73930.5,1.99,2.01,2.01,0,*4F
1501304745.44,13,17.56,73926.3,2.01,1.29,1.17,0,*41
1501304746.64,14,17.56,73922.0,1.99,0.83,0.83,0,*49
1501304747.87,15,17.56,73920.0,1.97,0.55,0.55,0,*46
1501304749.1,16,17.56,73920.0,1.97,1.25,1.29,0,*49
1501304750.33,17,17.56,73922.8,1.97,1.59,1.59,0,*44
1501304751.55,18,17.56,73922.3,1.97,2.21,2.21,0,*4B
1501304752.74,19,17.56,73928.5,1.99,2.35,2.39,0,*48
1501304753.94,20,17.56,73926.8,1.99,2.01,1.97,0,*42
1501304755.13,21,17.56,73930.0,1.99,1.17,1.05,0,*4C
1501304756.31,22,17.56,73930.3,1.99,1.01,0.95,0,*70
1501304757.51,23,17.56,73928.8,1.99,0.47,0.47,0,*4D
1501304758.73,24,17.56,73928.0,1.99,1.13,1.13,0,*4A
1501304759.89,25,17.56,73930.0,1.99,1.05,1.05,0,*4B
1501304761.07,26,17.56,73924.0,1.99,1.01,0.95,0,*74
1501304762.26,27,17.56,73926.5,1.97,0.79,0.97,0,*47
1501304763.47,28,17.56,73922.3,1.99,0.55,0.47,0,*45
1501304764.69,29,17.56,73926.5,1.97,0.63,0.51,0,*48
1501304765.91,30,17.56,73924.5,1.97,0.51,0.63,0,*40
1501304767.12,31,17.56,73924.8,1.95,1.55,1.59,0,*4E
1501304768.33,32,17.56,73922.0,1.95,2.09,2.17,0,*4E
1501304769.57,33,17.56,73924.8,1.97,2.47,2.47,0,*42
1501304770.81,34,17.56,73930.3,1.97,2.47,2.43,0,*41
1501304772.01,35,17.56,73924.0,1.99,2.69,2.73,0,*41
1501304773.23,36,17.56,73926.8,2.03,2.39,2.39,0,*49
1501304774.4,37,17.56,73924.8,2.03,2.65,2.61,0,*4C
1501304775.62,38,17.56,73928.3,2.03,2.77,2.73,0,*43
1501304776.85,39,17.56,73928.0,2.05,2.77,2.77,0,*40
1501304778.06,40,17.63,73928.8,2.07,2.47,2.47,0,*4C
1501304779.28,41,17.56,73930.8,2.07,2.81,2.81,0,*4D
1501304780.44,42,17.56,73928.3,2.11,2.35,2.35,0,*49
1501304781.67,43,17.56,73928.8,2.13,2.25,2.25,0,*4A
1501304782.86,44,17.56,73930.5,2.13,2.27,2.27,0,*4D
1501304784.07,45,17.63,73932.0,2.13,2.47,2.27,0,*4A
1501304785.23,46,17.63,73928.5,2.15,2.27,2.27,0,*49
1501304786.39,47,17.56,73922.8,2.15,2.31,2.31,0,*48
1501304787.62,48,17.56,73926.3,2.17,2.85,2.77,0,*48
1501304788.83,49,17.56,73924.8,2.15,2.21,2.05,0,*40
1501304790.06,50,17.63,73932.0,2.17,1.93,1.89,0,*47
1501304791.27,51,17.63,73930.5,2.15,1.29,1.29,0,*4F
1501304792.49,52,17.63,73928.5,2.17,1.09,1.05,0,*42
1501304793.65,53,17.63,73930.0,2.15,1.83,1.79,0,*48
1501304794.89,54,17.56,73932.5,2.17,1.67,1.55,0,*49
1501304796.09,55,17.56,73930.5,2.15,2.05,2.01,0,*4F
1501304797.28,56,17.56,73934.8,2.15,2.31,2.21,0,*49
1501304798.51,57,17.56,73932.8,2.17,2.21,2.21,0,*4B
1501304799.71,58,17.56,73938.8,2.17,2.21,2.27,0,*42
1501304800.93,59,17.63,73940.0,2.17,2.55,2.61,0,*42
1501304802.14,60,17.56,73942.8,2.15,2.73,2.73,0,*4D
1501304803.32,61,17.63,73940.3,2.19,2.43,2.35,0,*41
1501304804.54,62,17.63,73938.3,2.21,2.61,2.59,0,*43
1501304805.78,63,17.63,73942.3,2.21,2.73,2.73,0,*49
1501304806.99,64,17.56,73938.3,2.21,2.91,2.85,0,*4B
1501304808.18,65,17.63,73940.8,2.21,2.95,2.91,0,*4B
1501304809.34,66,17.63,73940.5,2.23,2.95,2.95,0,*4E
1501304810.54,67,17.56,73942.0,2.25,2.65,2.61,0,*4D
1501304811.77,68,17.63,73940.0,2.25,2.85,2.77,0,*4B
1501304813.01,69,17.63,73942.8,2.25,3.11,3.03,0,*44
1501304814.2,70,17.63,73942.0,2.29,2.91,2.91,0,*43
1501304815.39,71,17.63,73944.8,2.27,2.73,2.65,0,*4B
1501304816.63,72,17.63,73940.8,2.29,2.81,2.89,0,*49
1501304817.86,73,17.63,73938.3,2.29,2.77,2.69,0,*4F
1501304819.09,74,17.63,73944.5,2.29,2.59,2.55,0,*4B
1501304820.27,75,17.63,73944.8,2.33,2.27,2.31,0,*4A
1501304821.48,76,17.63,73940.3,2.33,2.43,2.27,0,*4C
1501304822.72,77,17.63,73942.3,2.33,1.55,1.47,0,*4C
1501304823.96,78,17.63,73948.5,2.29,1.33,1.25,0,*4C
1501304825.2,79,17.63,73944.5,2.29,1.37,1.25,0,*49
1501304826.41,80,17.63,73944.5,2.29,0.97,0.91,0,*4A
1501304827.64,81,17.63,73948.8,2.29,0.79,0.71,0,*45
1501304828.84,82,17.63,73946.5,2.27,0.71,0.71,0,*40
1501304830.06,83,17.63,73944.0,2.25,0.67,0.59,0,*4E
1501304831.26,84,17.63,73942.8,2.23,0.79,0.67,0,*4D
1501304832.49,85,17.69,73932.3,2.21,0.79,0.71,0,*49
1501304833.72,86,17.63,73928.3,2.21,0.95,0.83,0,*45
1501304834.93,87,17.63,73928.5,2.19,0.87,0.79,0,*49
1501304836.12,88,17.63,73930.5,2.19,0.75,0.75,0,*47
1501304837.32,89,17.69,73928.8,2.19,0.59,0.51,0,*4E
1501304838.52,90,17.69,73926.5,2.19,0.67,0.59,0,*43
1501304839.74,91,17.63,73918.8,2.17,0.33,0.21,0,*42
1501304840.91,92,17.69,73918.0,2.15,-0.15,-0.19,0,*4C
1501304842.11,93,17.69,73926.5,2.15,0.21,0.21,0,*41
1501304843.28,94,17.69,73934.3,2.15,0.21,0.01,0,*74
1501304844.48,95,17.69,73934.5,2.13,0.21,0.05,0,*77
1501304845.68,96,17.69,73934.3,2.11,0.71,0.67,0,*47
1501304846.89,97,17.69,73928.0,2.11,1.55,1.51,0,*45
1501304848.1,98,17.69,73918.5,2.11,0.95,0.91,0,*4A
1501304849.33,99,17.69,73922.8,2.13,0.95,0.83,0,*4A
1501304850.54,100,17.69,73926.5,2.11,0.55,0.51,0,*7A
1501304851.76,101,17.69,73924.0,2.11,1.43,1.43,0,*7F
1501304852.98,102,17.69,73932.3,2.11,2.09,2.17,0,*73
1501304854.14,103,17.69,73928.3,2.11,2.35,2.35,0,*7D
1501304855.39,104,17.69,73924.5,2.13,2.47,2.39,0,*71
1501304856.64,105,17.69,73930.8,2.17,2.55,2.51,0,*79
1501304857.86,106,17.69,73926.5,2.15,2.51,2.43,0,*7F
1501304859.11,107,17.69,73926.8,2.17,2.43,2.43,0,*7F
1501304860.28,108,17.69,73930.0,2.19,2.65,2.65,0,*7E
1501304861.47,109,17.69,73930.8,2.21,2.35,2.27,0,*77
1501304862.72,110,17.69,73932.0,2.21,2.51,2.47,0,*7B
1501304863.97,111,17.69,73932.5,2.21,2.51,2.47,0,*7A
1501304865.16,112,17.69,73930.3,2.19,2.65,2.59,0,*7A
1501304866.33,113,17.69,73926.5,2.23,2.27,2.27,0,*7D
1501304867.58,114,17.69,73924.8,2.25,2.51,2.43,0,*7F
1501304868.78,115,17.69,73930.8,2.25,2.65,2.65,0,*7D
1501304870.02,116,17.69,73936.8,2.25,2.77,2.73,0,*7A
1501304871.23,117,17.69,73926.3,2.27,2.05,1.93,0,*71
1501304872.46,118,17.75,73934.0,2.27,2.13,2.13,0,*72
1501304873.68,119,17.69,73936.0,2.27,2.39,2.43,0,*7E
1501304874.89,120,17.69,73942.8,2.29,2.43,2.35,0,*76
1501304876.06,121,17.75,73948.5,2.27,2.35,2.31,0,*7C
1501304877.28,122,17.69,73942.8,2.27,2.25,2.17,0,*7A
1501304878.44,123,17.75,73946.5,2.27,2.31,2.31,0,*7A
1501304879.66,124,17.75,73940.8,2.29,2.59,2.65,0,*7C
1501304880.88,125,17.75,73942.5,2.33,2.43,2.31,0,*7C
1501304882.12,126,17.75,73946.3,2.33,1.97,1.93,0,*7E
1501304883.36,127,17.75,73950.0,2.33,1.55,1.47,0,*78
1501304884.6,128,17.75,73946.3,2.33,1.71,1.71,0,*74
1501304885.84,129,17.75,73944.8,2.33,2.55,2.55,0,*75
1501304887.03,130,17.75,73950.0,2.35,2.85,2.91,0,*7E
1501304888.25,131,17.75,73944.8,2.35,3.07,3.07,0,*7A
1501304889.46,132,17.75,73938.5,2.37,2.85,2.85,0,*7B
1501304890.64,133,17.75,73940.0,2.37,2.65,2.61,0,*7E
1501304891.88,134,17.75,73932.0,2.39,2.55,2.55,0,*73
1501304893.08,135,17.75,73928.3,2.39,2.61,2.61,0,*72
1501304894.33,136,17.75,73922.3,2.43,2.81,2.81,0,*7C
1501304895.53,137,17.75,73916.5,2.43,2.99,2.99,0,*7D
1501304896.78,138,17.75,73918.5,2.43,3.11,3.11,0,*72
1501304898.03,139,17.75,73912.5,2.43,3.11,3.11,0,*73
1501304899.28,140,17.75,73912.0,2.47,3.41,3.33,0,*7C
1501304900.49,141,17.75,73910.8,2.47,3.29,3.23,0,*72
1501304901.71,142,17.75,73910.5,2.47,3.23,3.29,0,*71
1501304902.96,143,17.75,73912.5,2.47,3.41,3.33,0,*7F
1501304904.17,144,17.75,73920.8,2.51,3.37,3.25,0,*79
1501304905.37,145,17.75,73922.0,2.51,2.61,2.61,0,*7B
1501304906.61,146,17.75,73916.8,2.51,2.89,2.85,0,*74
1501304907.85,147,17.75,73906.3,2.51,2.77,2.73,0,*7D
1501304909.01,148,17.75,73912.0,2.53,2.99,2.99,0,*74
1501304910.18,149,17.75,73920.8,2.57,3.29,3.29,0,*71
1501304911.38,150,17.75,73928.3,2.59,3.29,3.29,0,*77
1501304912.57,151,17.75,73924.0,2.59,2.95,2.95,0,*76
1501304913.78,152,17.69,73922.5,2.59,2.91,2.85,0,*70
1501304914.98,153,17.75,73930.5,2.61,2.91,2.81,0,*7E
1501304916.19,154,17.75,73926.8,2.59,2.91,2.85,0,*76
1501304917.38,155,17.75,73924.0,2.61,2.95,2.89,0,*74
1501304918.62,156,17.69,73922.5,2.59,2.85,2.85,0,*71
1501304919.83,157,17.75,73922.3,2.61,2.77,2.73,0,*7F
1501304921.04,158,17.69,73920.5,2.61,2.73,2.73,0,*74
1501304922.2,159,17.75,73930.8,2.61,2.35,2.27,0,*76
1501304923.37,160,17.69,73926.8,2.61,2.61,2.61,0,*7F
1501304924.59,161,17.69,73916.0,2.61,2.59,2.51,0,*76
1501304925.8,162,17.69,73920.8,2.61,2.73,2.73,0,*7D
1501304927.02,163,17.69,73934.5,2.61,2.77,2.73,0,*78
1501304928.2,164,17.69,73928.8,2.63,2.95,2.99,0,*75
1501304929.44,165,17.69,73930.0,2.63,3.11,3.11,0,*78
1501304930.66,166,17.69,73924.0,2.63,2.95,2.89,0,*76
1501304931.87,167,17.69,73930.3,2.65,2.89,2.77,0,*7D
1501304933.11,168,17.75,73932.5,2.63,2.89,2.89,0,*75
1501304934.31,169,17.69,73934.5,2.65,3.03,2.99,0,*70
1501304935.5,170,17.69,73934.8,2.65,3.25,3.15,0,*79
1501304936.67,171,17.69,73938.3,2.65,2.99,2.99,0,*7B
1501304937.86,172,17.75,73936.8,2.65,3.03,2.91,0,*72
1501304939.09,173,17.69,73938.5,2.65,3.03,3.03,0,*79
1501304940.33,174,17.69,73946.8,2.67,3.03,3.03,0,*7C
1501304941.58,175,17.69,73944.3,2.67,3.15,3.15,0,*7D